Regional Weather Roundup
Issued by NWS

Home | Current Version | Previous Version | Graphics & Text | Print | Product List | Glossary On
Versions: 1 2 3 4 5 6 7 8 9 10 11 12 13 14 15 16 17 18 19 20 21 22 23 24 25 26 27 28 29 30 31 32 33 34 35 36 37 38 39 40 41 42 43 44 45 46 47 48 49 50
747
ASUS43 KDTX 271201
RWRMI
MICHIGAN HOURLY REGIONAL WEATHER ROUNDUP
NATIONAL WEATHER SERVICE DETROIT/PONTIAC MI
800 AM EDT THU APR 27 2017

NOTE: "FAIR" INDICATES FEW OR NO CLOUDS BELOW 12,000 FEET WITH NO
SIGNIFICANT WEATHER AND/OR OBSTRUCTION TO VISIBILITY.

MIZ047>049-052>055-059>063-066>070-074>076-081>083-271300-
SOUTHEAST LOWER MICHIGAN

CITY           SKY/WX    TMP DP  RH WIND       PRES   REMARKS
ADRIAN         PTSUNNY   64  55  72 SW12      29.51R
6HR MIN TEMP:  63; 6HR MAX TEMP:  67;

ALMA           CLOUDY    67  57  70 SW9G21    29.41S
ANN ARBOR      CLOUDY    67  57  70 S13       29.49R
BAD AXE        CLOUDY    63  53  70 S15G21    29.47S
6HR MIN TEMP:  61; 6HR MAX TEMP:  63;

CARO           CLOUDY    65  55  68 S12G17    29.45R
DETROIT CITY   CLOUDY    69  56  62 S15G21    29.50F
6HR MIN TEMP:  58; 6HR MAX TEMP:  69;

DETROIT        CLOUDY    69  57  65 S15       29.51R
6HR MIN TEMP:  62; 6HR MAX TEMP:  69;

FLINT          CLOUDY    67  55  65 S14G24    29.46R
6HR MIN TEMP:  61; 6HR MAX TEMP:  67;

GROSSE ILE     CLOUDY    59  54  82 SW8       29.50S
6HR MIN TEMP:  57; 6HR MAX TEMP:  65;

HILLSDALE      CLOUDY    61  52  72 S10       29.48R
HOWELL         SUNNY     66  53  63 S12G18    29.47R
6HR MIN TEMP:  61; 6HR MAX TEMP:  66;


CITY           SKY/WX    TMP DP  RH WIND       PRES   REMARKS
JACKSON        CLOUDY    65  52  62 S9G23     29.47S
6HR MIN TEMP:  63; 6HR MAX TEMP:  67;

LAMBERTVILLE   CLOUDY    68  52  57 SW7       29.51R
6HR MIN TEMP:  67; 6HR MAX TEMP:  69;

LANSING        MOSUNNY   67  54  63 S12       29.43S
6HR MIN TEMP:  66; 6HR MAX TEMP:  69;

LAPEER         FAIR      64  53  67 S8        29.48S
6HR MIN TEMP:  58; 6HR MAX TEMP:  64;

MASON          CLOUDY    65  56  71 S6        29.46R
MONROE         MOSUNNY   68  57  68 S8        29.51R
6HR MIN TEMP:  63; 6HR MAX TEMP:  69;

MT. CLEMENS    PTSUNNY   63  56  80 S9        29.49F
6HR MIN TEMP:  55; 6HR MAX TEMP:  63;

PONTIAC        CLOUDY    64  54  69 S9G18     29.48S
6HR MIN TEMP:  60; 6HR MAX TEMP:  65;

PORT HOPE        N/A     62  54  74 SE10      29.45F
6HR MIN TEMP:  57; 6HR MAX TEMP:  68; 6HR PCP:  0.01;

PORT HURON     CLOUDY    64  52  63 SE8       29.52F
TRI CITIES     MOSUNNY   67  54  63 S15G24    29.43R
6HR MIN TEMP:  64; 6HR MAX TEMP:  68;

MIDLAND        FAIR      67  52  58 S12       29.41R
6HR MIN TEMP:  65; 6HR MAX TEMP:  68;

TROY           CLOUDY    69  55  60 S13G18    29.51S
SAGINAW HB     PTSUNNY   66  50  55 S14       29.43R
$$
MIZ043>046-050>051-056>058-064>065-071>073-077>080-271300-
SOUTHWEST LOWER MICHIGAN

CITY           SKY/WX    TMP DP  RH WIND       PRES   REMARKS
BATTLE CREEK   PTSUNNY   64  54  69 S20G26    29.42F
6HR MIN TEMP:  63; 6HR MAX TEMP:  66; 6HR PCP: TRACE;

BENTON HARBOR  CLOUDY    62  53  72 S17G30    29.34F
6HR MIN TEMP:  59; 6HR MAX TEMP:  62; 6HR PCP: TRACE;

BIG RAPIDS     CLOUDY    61  56  84 S10       29.37R
6HR MIN TEMP:  58; 6HR MAX TEMP:  61; 6HR PCP:  0.04;

COLDWATER      PTSUNNY   64  53  67 S12G21    29.45R
6HR MIN TEMP:  63; 6HR MAX TEMP:  68;

FREMONT        CLOUDY    59  59  97 S8        29.34F
HOLLAND        CLOUDY    62  55  77 S17G25    29.36S
6HR MIN TEMP:  57; 6HR MAX TEMP:  62; 6HR PCP:  0.01;

GRAND RAPIDS   CLOUDY    63  57  81 S13       29.38S
6HR MIN TEMP:  60; 6HR MAX TEMP:  63; 6HR PCP: TRACE;

IONIA          CLOUDY    65  55  69 S13G18    29.39F
6HR MIN TEMP:  63; 6HR MAX TEMP:  67;

KALAMAZOO      CLOUDY    64  52  64 S15G30    29.41F
6HR MIN TEMP:  61; 6HR MAX TEMP:  65; 6HR PCP: TRACE;

LUDINGTON      LGT RAIN  59  58  96 S10       29.28F
6HR MIN TEMP:  56; 6HR MAX TEMP:  60; 6HR PCP:  0.14;

MARSHALL       PTSUNNY   64  53  66 S14G24    29.43S
6HR MIN TEMP:  64; 6HR MAX TEMP:  68;

MOUNT PLEASANT CLOUDY    66  55  66 S10G16    29.39R
6HR MIN TEMP:  60; 6HR MAX TEMP:  66;

MUSKEGON       CLOUDY    62  55  77 S15G28    29.33F
6HR MIN TEMP:  58; 6HR MAX TEMP:  62; 6HR PCP:  0.32;

SOUTH HAVEN    CLOUDY    61  55  81 S13G20    29.36S
$$
MIZ016>042-271300-
NORTHERN LOWER MICHIGAN

CITY           SKY/WX    TMP DP  RH WIND       PRES   REMARKS
ALPENA         MOSUNNY   58  53  84 E9        29.40F
6HR MIN TEMP:  52; 6HR MAX TEMP:  58;

BEAVER ISLAND  FOG       46  46 100 E8        29.30S VSB 3/4
6HR MIN TEMP:  46; 6HR MAX TEMP:  53;

BELLAIRE       CLOUDY    64  57  76 S12G18    29.31R
6HR MIN TEMP:  55; 6HR MAX TEMP:  64;

CADILLAC       CLOUDY    62  58  84 S21G26    29.35R
CHARLEVOIX     CLOUDY    58  58 100 SE5       29.32S
6HR MIN TEMP:  56; 6HR MAX TEMP:  60;

FRANKFORT      RAIN      59  57  94 S9        29.30R
GAYLORD        CLOUDY    62  55  77 SE12      29.34F
6HR MIN TEMP:  61; 6HR MAX TEMP:  63; 6HR PCP:  0.03;

GRAYLING       PTSUNNY   63  56  80 SE12      29.37R
6HR MIN TEMP:  58; 6HR MAX TEMP:  63;

HARBOR SPRINGS CLOUDY    54  54 100 E8        29.31F
HOUGHTON LAKE  MOSUNNY   63  55  75 S15       29.38R
6HR MIN TEMP:  59; 6HR MAX TEMP:  65; 6HR PCP:  0.04;

MANISTEE       LGT RAIN  60  58  92 S8        29.30F
OSCODA         MOSUNNY   62  50  65 S15G22    29.42F
6HR MIN TEMP:  58; 6HR MAX TEMP:  64;

PELLSTON       CLOUDY    50  48  93 CALM      29.33F FOG
6HR MIN TEMP:  50; 6HR MAX TEMP:  55; 6HR PCP:  0.10;

ROGERS CITY    CLOUDY    61  54  77 S13G18    29.38F
TRAVERSE CITY  CLOUDY    59  57  93 S3        29.29R
6HR MIN TEMP:  55; 6HR MAX TEMP:  61; 6HR PCP:  0.17;

$$
MIZ007>008-015-271300-
EASTERN UPPER MICHIGAN

CITY           SKY/WX    TMP DP  RH WIND       PRES   REMARKS
KINROSS        CLOUDY    49  48  97 E15       29.34F FOG
6HR MIN TEMP:  49; 6HR MAX TEMP:  50; 6HR PCP:  0.05;

MACKINAC ISLAN FOG       40  40 100 E12       29.32F VSB 1/2 WCI  34
6HR MIN TEMP:  40; 6HR MAX TEMP:  48; 6HR PCP:  0.11;

NEWBERRY       LGT RAIN  43  42  97 N5        29.32S VSB 1/4
6HR MIN TEMP:  43; 6HR MAX TEMP:  51; 6HR PCP:  0.08;

S. S. MARIE    CLOUDY    53  51  93 E10       29.35F FOG
6HR MIN TEMP:  53; 6HR MAX TEMP:  54; 6HR PCP:  0.10;

MUNISING         N/A     35  34  96 NW15      29.36F WCI  25
6HR MIN TEMP:  35; 6HR MAX TEMP:  37; 6HR PCP:  0.39;

$$
MIZ004>006-011>014-085-271300-
CENTRAL UPPER MICHIGAN

CITY           SKY/WX    TMP DP  RH WIND       PRES   REMARKS
MANISTIQUE     RAIN      37  36  97 N12G18    29.31F WCI  29
6HR MIN TEMP:  37; 6HR MAX TEMP:  47; 6HR PCP:  0.14;

ESCANABA       RAIN      35  34  96 NW9       29.33S FOG     WCI  28
6HR MIN TEMP:  35; 6HR MAX TEMP:  45; 6HR PCP:  0.36;

MENOMINEE      RAIN      39  37  92 N10       29.31F WCI  32
6HR MIN TEMP:  39; 6HR MAX TEMP:  46; 6HR PCP:  0.44;

SAWYER-GWINN   CLOUDY    32  30  93 N12       29.36F FOG     WCI  23
$$
MIZ001>003-009>011-084-271300-
WESTERN UPPER MICHIGAN

CITY           SKY/WX    TMP DP  RH WIND       PRES   REMARKS
IRON MOUNTAIN  LGT RAIN  34  30  85 NW13      29.33F WCI  25
6HR MIN TEMP:  34; 6HR MAX TEMP:  37; 6HR PCP:  0.18;

HOUGHTON       SNOW      29  25  85 N13       29.42F VSB 1/2 WCI  19
6HR MIN TEMP:  29; 6HR MAX TEMP:  30; 6HR PCP:  0.06;

IRONWOOD       LGT SNOW  26  25  96 N7G17     29.48F FOG     WCI  18
6HR MIN TEMP:  26; 6HR MAX TEMP:  27; 6HR PCP: TRACE;

$$

ABBREVIATIONS USED IN REMARKS
   TC - TEMPERATURE IN CELSIUS
  WCI - WIND CHILL INDEX
   HX - HEAT INDEX
  VSB - VISIBILITY





USA.gov is the U.S. government's official web portal to all federal, state and local government web resources and services.